Location: Cluny
(50.9333°N, 112.8167°W)
Time: 00:20:12
(UTC-06:00)

Hamsat - Visible Passes

Search period start: 24 March 2017 00:00
Search period end: 03 April 2017 00:00
Orbit: 585 x 620 km, 97.6° (Epoch: 22 March)

Date Brightness Start Highest point End Pass type
(mag) Time Alt. Az. Time Alt. Az. Time Alt. Az.
24 Mar ? 05:35:09 10° NNE 05:39:18 52° E 05:43:25 10° S visible
25 Mar ? 05:46:54 10° NNE 05:51:07 69° ESE 05:55:20 10° S visible
26 Mar ? 04:25:11 10° ENE 04:26:30 11° E 04:27:50 10° ESE visible
26 Mar ? 05:58:41 10° NNE 06:02:55 89° E 06:07:11 10° SSW visible
27 Mar ? 04:36:03 10° NE 04:38:28 15° E 04:40:51 10° ESE visible
27 Mar ? 06:10:30 10° N 06:14:44 70° WNW 06:18:57 10° SSW visible
28 Mar ? 04:47:22 10° NE 04:50:23 19° E 04:53:25 10° SE visible
28 Mar ? 06:22:21 10° N 06:26:29 54° WNW 06:30:38 10° SSW visible
29 Mar ? 04:58:49 10° NE 05:02:18 24° E 05:05:46 10° SSE visible
29 Mar ? 06:34:15 10° N 06:38:15 42° WNW 06:42:15 10° SW visible
30 Mar ? 05:10:24 10° NNE 05:14:12 31° E 05:17:59 10° SSE visible
31 Mar ? 05:22:02 10° NNE 05:26:03 39° E 05:30:05 10° SSE visible
01 Apr ? 05:33:44 10° NNE 05:37:54 52° E 05:42:05 10° S visible
02 Apr ? 05:45:28 10° NNE 05:49:44 68° ESE 05:54:00 10° S visible
